Location: *
(49.1466°S, 178.3784°W)
Time: 21:16:11
(UTC+00:00)

Daily predictions for brighter satellites

Satellite Brightness Start Highest point End
(mag) Time Altitude Azimuth Time Altitude Azimuth Time Altitude Azimuth
Cosmos 2263 Rocket 4.4 15:22:53 20° E 15:22:53 20° E 15:24:49 10° ENE
Cosmos 1980 Rocket 3.9 15:35:06 29° ESE 15:35:06 29° ESE 15:38:45 10° SE
SL-16 R/B 4.5 15:47:52 10° SSE 15:49:28 19° S 15:49:28 19° S
SeaSat 1 3.4 16:09:58 10° NE 16:14:03 44° ESE 16:14:03 44° ESE
S3M 4.2 16:17:53 37° S 16:20:25 67° ESE 16:26:40 10° NNE
USA 234 3.1 16:19:21 10° SE 16:26:00 87° SSW 16:26:20 82° WNW
Cosmos 1697 Rocket 3.9 16:30:03 32° S 16:30:03 32° S 16:33:11 10° SSE
Cosmos 2266 Rocket 4.2 16:30:52 10° N 16:36:55 68° E 16:43:00 10° SSE
Cosmos 1844 Rocket 4.1 16:38:48 21° S 16:41:39 33° SE 16:46:40 10° ENE
Cosmos 1417 Rocket 4.4 16:41:05 70° SW 16:41:42 76° W 16:48:05 10° N
Blok-L 4.0 16:42:20 71° ENE 16:42:20 71° ENE 16:48:58 10° NE
SMAP 4.0 16:37:45 10° NE 16:42:15 48° ESE 16:44:17 29° SSE
Cosmos 839 Rocket 4.5 16:42:54 57° WSW 16:43:25 58° SW 16:50:09 10° SSE
Exosat Rocket 4.1 16:42:08 44° S 16:43:28 58° ESE 16:49:04 10° NE
Blok-ML 4.4 16:53:40 74° S 16:54:00 80° SE 17:05:28 10° NE
Cosmos 2369 3.6 16:58:24 67° W 16:58:45 69° WSW 17:04:30 10° SSE
BREEZE-M DEB (TANK) 3.1 17:00:04 41° ENE 17:00:04 41° ENE 17:01:41 10° E
DNEPR-1 R/B 3.7 17:02:35 60° SSE 17:02:46 61° SE 17:06:54 10° NE
Cosmos 2263 Rocket 2.5 17:04:37 47° NW 17:04:37 47° NW 17:09:15 10° N
Cosmos 2278 3.8 17:02:44 10° NNW 17:08:25 75° ENE 17:14:11 10° SSE
Genesis I 4.3 17:11:30 32° N 17:11:30 32° N 17:13:49 10° NNE
ARGOS 3.1 17:06:03 10° N 17:11:28 62° W 17:13:07 43° SW
Cosmos 883 Rocket 4.3 17:06:57 10° SSW 17:13:10 74° W 17:19:17 10° N
Cosmos 1544 4.5 17:13:48 19° SSE 17:15:43 35° ESE 17:18:53 10° NE
Cosmos 1992 Rocket 4.5 17:13:05 20° SSW 17:16:43 59° ESE 17:21:54 10° NE
Cosmos 1980 Rocket 2.4 17:16:55 48° WSW 17:17:30 49° SW 17:23:06 10° SSE
CBERS 1 LM4 rocket 4.5 17:14:10 10° NNE 17:19:02 76° ESE 17:23:03 15° SSW
Cosmos 1666 4.1 17:16:51 12° S 17:19:58 37° ESE 17:23:26 10° NE
SL-24 R/B 4.4 17:16:11 10° NNE 17:20:49 88° ESE 17:26:22 10° SSW
AQUARIUS 4.0 17:23:57 10° NNE 17:28:29 82° WNW 17:31:36 20° SSW
Cosmos 2315 Rocket 3.9 17:23:48 10° SSW 17:30:01 63° W 17:36:09 10° N
Cosmos 967 Rocket 4.5 17:26:53 24° NW 17:30:58 65° SW 17:37:26 10° SE
CZ-2C R/B 4.1 17:26:39 10° S 17:28:52 20° SSW 17:28:52 20° SSW
ISS -3.9 17:34:51 74° W 17:35:07 84° NNW 17:38:33 10° ENE
BREEZE-M DEB (TANK) 2.1 17:35:26 45° NNE 17:35:34 45° NNE 17:38:32 10° E
SL-16 R/B 4.3 17:33:00 10° SSW 17:34:33 14° SSW 17:34:33 14° SSW
CZ-4B R/B 3.8 17:32:47 10° N 17:37:43 44° W 17:39:40 30° SW
Timation 2 Rocket 3.9 17:35:22 26° SW 17:38:50 62° WNW 17:44:59 10° NNE
SL-08 RB Rocket 4.1 17:37:23 10° NNW 17:41:38 40° W 17:42:34 36° WSW
Cosmos 1242 Rocket 2.4 17:43:59 51° W 17:44:10 52° W 17:47:29 10° N
Cosmos 2237 4.4 17:39:30 10° NNW 17:45:12 74° ENE 17:51:00 10° SSE
Cosmos 1655 Rocket 4.1 17:39:29 10° NNW 17:45:33 50° WSW 17:51:43 10° S
Cosmos 1602 3.6 17:44:57 15° S 17:48:07 89° W 17:51:53 10° N
Meteor 1-31 Rocket 4.5 17:48:13 10° NNW 17:49:42 18° NW 17:49:42 18° NW
SeaSat 1 3.2 17:47:53 10° N 17:52:18 32° WNW 17:53:48 27° WSW
Cosmos 1818 3.7 17:49:20 20° WNW 17:52:54 52° SW 17:58:14 10° SSE
Cosmos 1461 2.6 17:51:10 29° SW 17:53:03 88° SE 17:57:02 10° NE
CORIOLIS 4.4 17:48:15 10° N 17:53:26 48° W 17:58:44 10° SSW
Cosmos 1766 Rocket 4.4 17:49:05 10° S 17:53:33 54° ESE 17:57:56 10° NNE
Meteor PRIRODA 3.5 17:50:02 10° N 17:53:40 81° WNW 17:56:47 14° SSW
Cosmos 44 3.5 17:54:39 30° WSW 17:56:05 40° WNW 18:00:05 10° N
NOAA 6 4.0 17:50:57 10° NNE 17:56:08 81° WNW 18:01:24 10° SSW
Helios 1A 3.9 17:54:07 10° S 17:57:32 27° WSW 17:57:32 27° WSW
Meteor 1-20 Rocket 4.2 17:55:50 10° SSW 18:01:33 82° WNW 18:07:18 10° N
Cosmos 1500 3.4 18:01:15 20° SSW 18:03:33 45° W 18:07:05 10° NNW
Meteor 1-25 Rocket 4.2 18:01:52 10° SSW 18:07:37 85° W 18:13:14 10° N
USA 234 3.6 18:02:22 10° ESE 18:08:43 50° SSW 18:13:41 17° W
SL-16 R/B 2.2 18:03:14 10° NW 18:08:54 70° WSW 18:14:40 10° SSE
Cosmos 2322 Rocket 2.2 18:06:37 10° NNW 18:12:16 89° WSW 18:17:59 10° SSE
CZ-4B R/B 3.0 18:08:01 10° N 18:12:18 76° WNW 18:16:48 10° SSW
Cosmos 1697 Rocket 4.2 18:11:49 16° SW 18:12:47 16° SSW 18:16:17 10° S
Cosmos 1844 3.7 18:07:42 11° SSW 18:13:22 74° WNW 18:19:08 10° NNE
Okean O Rocket 3.7 18:10:47 10° ENE 18:14:25 25° ESE 18:18:04 10° S
DELTA 2 DEB (DPAF) 4.2 18:14:40 10° SSE 18:19:08 84° ENE 18:23:32 10° NNW
Cosmos 2360 Rocket 2.4 18:13:47 10° NNW 18:19:27 76° ENE 18:25:11 10° SSE
SMAP 4.2 18:16:03 10° NW 18:19:50 24° W 18:22:45 14° SW
Cosmos 2221 2.8 18:18:55 10° N 18:23:16 73° E 18:27:39 10° SSE
Cosmos 1844 Rocket 2.9 18:20:29 11° SW 18:25:47 52° WNW 18:31:11 10° N
Cosmos 2333 Rocket 2.7 18:25:49 10° NNW 18:31:26 68° ENE 18:37:08 10° SSE
COSMO-SKYMED 1 2.6 18:27:41 10° S 18:32:05 64° WSW 18:36:26 10° NNW
Cosmos 1269 Rocket 4.2 18:28:40 10° NW 18:33:53 53° WSW 18:39:11 10° SSE
SL-4 R/B 3.2 18:29:54 10° NW 18:34:16 51° NNE 18:38:50 10° ESE
Cosmos-2242 4.0 18:30:48 10° NW 18:34:32 26° WSW 18:38:19 10° SSW
Cosmos 1933 3.3 18:31:40 10° NNW 18:35:45 77° W 18:39:55 10° S
Cosmos 1812 Rocket 4.5 18:32:42 10° NW 18:36:25 27° WSW 18:40:11 10° SSW
USA 81 4.1 18:38:12 10° SSW 18:43:31 64° W 18:48:45 10° N
Cosmos 2219 Rocket 3.0 18:38:04 10° N 18:43:33 57° ENE 18:49:06 10° SE
ADEOS 4.3 18:39:42 10° NNW 18:44:27 34° W 18:49:15 10° SSW
Cosmos 1812 3.0 18:41:52 10° NNW 18:45:28 42° WSW 18:49:09 10° S
Landsat 4 4.3 18:44:12 10° NNW 18:47:37 35° W 18:51:04 10° SSW
CZ-4B R/B 3.5 18:45:42 10° NNE 18:51:23 79° ESE 18:57:04 10° SSW
CZ-4 R/B 1.7 18:49:47 10° NNE 18:53:48 74° ESE 18:57:57 10° S
Cosmos 1666 4.1 18:52:10 10° SW 18:54:45 18° W 18:57:19 10° NW
Meteor 2-20 4.5 18:48:36 10° SSW 18:54:47 78° W 19:00:55 10° N
SKYMED 3 4.5 18:50:37 10° S 18:54:50 63° WSW 18:58:58 10° NNW
Cosmos 1500 Rocket 4.1 18:53:19 10° S 18:57:44 63° ESE 19:02:07 10° NNE
NOSS 3-3 (A) 3.9 18:51:42 10° SW 18:58:22 85° NW 19:04:01 10° NE
NOSS 3-3 (C) 4.0 18:51:47 10° SW 18:58:28 86° NW 19:04:06 10° NE
Cosmos 1745 Rocket 4.0 18:52:55 10° NNW 18:59:02 63° WSW 19:05:14 10° S
PSLV R/B 3.7 18:56:33 10° N 19:00:26 72° WNW 19:04:17 10° SSW
SL-19 R/B 3.7 18:58:16 10° SSE 19:01:15 77° ENE 19:04:06 10° NNW
Cosmos 1709 Rocket 4.1 18:56:03 10° N 19:02:13 87° W 19:08:32 10° S
Cosmos 1980 Rocket 3.9 18:59:52 10° WSW 19:02:59 15° SSW 19:06:07 10° S
SL-08 R/B 4.1 18:58:59 10° S 19:02:59 29° WSW 19:06:57 10° WNW
Cosmos 1943 Rocket 4.0 18:58:45 10° SSW 19:03:26 25° SE 19:08:05 10° E
Cosmos 2278 Rocket 3.1 19:00:26 10° SSW 19:05:59 47° SE 19:11:29 10° NE
NOSS 3-2 (A) 4.3 18:58:58 10° NW 19:07:48 89° NE 19:15:25 10° SE
BREEZE-M R/B 4.3 19:02:30 10° WSW 19:10:03 84° NNW 19:15:59 10° ENE
